Location: Moscow
(38.3171°N, 79.0889°W)
Time: 01:12:55
(UTC+00:00)

SL-12 R/B(2) - Pass Details

Date: 07 November 2025
Orbit: 1173 x 2175 km, 63.4° (Epoch: 08 December)

Event Time Altitude Azimuth Distance (km) Brightness Sun altitude
Rises 23:29:36 0° 186° (S) 4,080 6.9 -15.9°
Reaches altitude 10° 23:32:20 10° 180° (S) 3,170 6.3 -16.4°
Maximum altitude 23:39:20 43° 111° (ESE) 1,803 4.5 -17.8°
Enters shadow 23:44:53 20° 52° (NE) 2,882 5.4 -18.8°
